CW8919 Weather Reports


time (UTC)temp
C
wind
direction
speed
KPH
gust
KPH
rain 1hr
cm
rain 24hr
cm
rain mn
cm
humidity
%
barometer
mb
20180619232935 21 206 0.0 0.0 0.00 0.00 0.00 78 1016.8
20180619231440 21 206 0.0 0.0 0.00 0.00 0.00 78 1016.7
20180619225935 21 206 0.0 0.0 0.00 0.00 0.00 78 1016.9
20180619224432 21 206 0.0 0.0 0.00 0.00 0.00 78 1017.0
20180619222931 21 206 0.0 0.0 0.00 0.00 0.00 78 1017.1
20180619221423 21 206 0.0 0.0 0.00 0.00 0.00 78 1017.2
20180619215943 21 206 0.0 0.0 0.00 0.00 0.00 77 1017.3
20180619214427 21 206 0.0 0.0 0.00 0.00 0.00 76 1017.2
20180619212938 21 206 0.0 0.0 0.00 0.00 0.00 76 1017.0
20180619211428 21 206 0.0 0.0 0.00 0.00 0.00 77 1016.9
20180619205931 21 206 0.0 0.0 0.00 0.00 0.00 76 1016.9
20180619204436 21 206 0.0 0.0 0.00 0.00 0.00 76 1016.7
20180619202924 21 206 0.0 0.0 0.00 0.00 0.00 75 1016.5
20180619201434 22 206 0.0 0.0 0.00 0.00 0.00 75 1016.4
20180619195928 22 206 0.0 8.0 0.00 0.00 0.00 74 1016.4
20180619194433 22 206 0.0 1.6 0.00 0.00 0.00 74 1016.3
20180619192924 22 206 0.0 0.0 0.00 0.00 0.00 75 1016.2
20180619191432 22 206 0.0 4.8 0.00 0.00 0.00 75 1016.2
20180619185935 22 206 0.0 1.6 0.00 0.00 0.00 74 1016.2
20180619184441 22 206 0.0 4.8 0.00 0.00 0.00 73 1016.2
20180619182937 22 206 0.0 3.2 0.00 0.00 0.00 72 1016.1
20180619181443 22 206 0.0 3.2 0.00 0.00 0.00 71 1016.1
20180619175937 23 206 1.6 8.0 0.00 0.00 0.00 70 1016.1
20180619174442 23 206 0.0 8.0 0.00 0.00 0.00 70 1016.2
20180619172937 23 206 1.6 8.0 0.00 0.00 0.00 70 1016.2
20180619171442 23 206 0.0 3.2 0.00 0.00 0.00 68 1016.3
20180619165928 23 206 1.6 14.5 0.00 0.00 0.00 69 1016.4
20180619164429 23 204 1.6 9.7 0.00 0.00 0.00 69 1016.6
20180619162939 23 205 1.6 9.7 0.00 0.00 0.00 70 1016.7
20180619161437 23 205 1.6 16.1 0.00 0.00 0.00 72 1016.9
20180619152935 22 208 9.7 19.3 0.00 0.00 0.00 72 1016.7
20180619151435 23 207 3.2 20.9 0.00 0.00 0.00 71 1016.7
20180619145938 23 210 3.2 12.9 0.00 0.00 0.00 70 1016.9
20180619144432 23 208 0.0 11.3 0.00 0.00 0.00 71 1016.9
20180619142937 23 204 8.0 20.9 0.00 0.00 0.00 68 1016.9
20180619141433 24 190 4.8 24.1 0.00 0.00 0.00 66 1016.7
20180619135940 25 168 1.6 16.1 0.00 0.00 0.00 65 1016.6
20180619134437 24 168 1.6 11.3 0.00 0.00 0.00 66 1016.6
20180619132940 23 168 0.0 16.1 0.00 0.00 0.00 69 1016.6
20180619131435 24 162 3.2 14.5 0.00 0.00 0.00 67 1016.8
20180619125932 23 162 1.6 11.3 0.00 0.00 0.00 67 1016.8
20180619124429 24 162 8.0 16.1 0.00 0.00 0.00 66 1016.9
20180619122929 25 158 4.8 12.9 0.00 0.00 0.00 64 1017.1
20180619121429 25 158 1.6 14.5 0.00 0.00 0.00 65 1017.1
20180619115932 24 158 0.0 4.8 0.00 0.00 0.00 67 1017.1
20180619114423 24 158 1.6 12.9 0.00 0.00 0.00 68 1017.1
20180619112927 23 158 1.6 6.4 0.00 0.00 0.00 73 1017.2
20180619111441 22 158 1.6 6.4 0.00 0.00 0.00 77 1017.5
20180619105945 21 159 11.3 19.3 0.00 0.00 0.00 77 1017.6
20180619104431 21 168 12.9 24.1 0.00 0.00 0.00 77 1017.7
20180619102937 21 166 12.9 24.1 0.00 0.00 0.00 77 1017.7
20180619101433 21 150 8.0 17.7 0.00 0.00 0.00 77 1017.8
20180619095937 21 165 11.3 22.5 0.00 0.00 0.00 77 1017.9
20180619094437 21 162 6.4 19.3 0.00 0.00 0.00 78 1017.8
20180619092938 21 161 4.8 19.3 0.00 0.00 0.00 78 1017.9
20180619091434 21 118 1.6 11.3 0.00 0.00 0.00 80 1017.8
20180619085935 20 118 3.2 11.3 0.00 0.00 0.00 81 1017.8
20180619084432 20 117 1.6 12.9 0.00 0.00 0.00 81 1017.9
20180619082932 20 118 0.0 4.8 0.00 0.00 0.00 81 1017.8
20180619081431 20 118 1.6 12.9 0.00 0.00 0.00 80 1017.8
20180619075941 20 116 0.0 12.9 0.00 0.00 0.00 80 1017.9
20180619074437 19 116 6.4 14.5 0.00 0.00 0.00 79 1017.6
20180619072940 19 104 4.8 12.9 0.00 0.00 0.00 78 1017.5
20180619071435 19 99 3.2 9.7 0.00 0.00 0.00 78 1017.5
20180619065933 20 100 4.8 14.5 0.00 0.00 0.00 76 1017.2
20180619064425 19 98 1.6 8.0 0.00 0.00 0.00 77 1017.2
20180619062925 19 98 0.0 0.0 0.00 0.00 0.00 77 1017.0
20180619061440 19 98 0.0 0.0 0.00 0.00 0.00 76 1016.9
20180619055924 20 98 0.0 12.9 0.00 0.00 0.00 76 1016.6
20180619054440 20 98 0.0 0.0 0.00 0.00 0.00 76 1016.5
20180619052923 20 98 0.0 0.0 0.00 0.00 0.00 75 1016.2
20180619051436 20 98 0.0 0.0 0.00 0.00 0.00 76 1016.1
20180619045937 20 98 0.0 0.0 0.00 0.00 0.00 76 1015.9
20180619044429 20 98 0.0 0.0 0.00 0.00 0.00 76 1015.8
20180619042927 20 98 0.0 0.0 0.00 0.00 0.00 76 1015.5
20180619041425 20 98 0.0 0.0 0.00 0.00 0.00 76 1015.4
20180619035928 20 98 0.0 0.0 0.00 0.00 0.00 75 1015.3
20180619034441 20 98 0.0 0.0 0.00 0.00 0.00 75 1015.2
20180619032926 21 98 0.0 0.0 0.00 0.00 0.00 75 1015.2
20180619031440 21 98 0.0 0.0 0.00 0.00 0.00 75 1015.3
20180619025934 20 98 0.0 0.0 0.00 0.00 0.00 76 1015.3
20180619024432 20 98 0.0 0.0 0.00 0.00 0.00 77 1015.3
20180619022932 20 98 0.0 0.0 0.00 0.00 0.00 79 1015.1
20180619021427 20 98 0.0 0.0 0.00 0.00 0.00 81 1015.2
20180619015929 20 98 0.0 0.0 0.00 0.00 0.00 81 1015.2
20180619014428 19 98 0.0 0.0 0.00 0.00 0.00 81 1015.3
20180619012927 18 98 1.6 4.8 0.00 0.00 0.00 82 1015.4
20180619011426 18 98 0.0 0.0 0.00 0.00 0.00 82 1015.5
20180619005942 18 99 0.0 0.0 0.00 0.00 0.00 81 1015.5
20180619004438 18 99 0.0 0.0 0.00 0.00 0.00 81 1015.6
20180619002940 18 99 0.0 0.0 0.00 0.00 0.00 81 1015.4
20180619001439 18 98 0.0 0.0 0.00 0.00 0.00 79 1015.3
20180618235925 19 98 0.0 0.0 0.00 0.00 0.00 77 1015.6
20180618234438 20 98 3.2 12.9 0.00 0.00 0.00 74 1015.8